Year,Month,Day,Hour,Minute,Value (Times are PST for temperature in C)
2022,10,06,00,00,10.80
2022,10,06,00,01,10.80
2022,10,06,00,02,10.80
2022,10,06,00,03,10.80
2022,10,06,00,04,10.80
2022,10,06,00,05,10.80
2022,10,06,00,06,10.80
2022,10,06,00,07,10.80
2022,10,06,00,08,10.80
2022,10,06,00,09,10.80
2022,10,06,00,10,10.70
2022,10,06,00,11,10.70
2022,10,06,00,12,10.70
2022,10,06,00,13,10.70
2022,10,06,00,14,10.70
2022,10,06,00,15,10.70
2022,10,06,00,16,10.70
2022,10,06,00,17,10.70
2022,10,06,00,18,10.70
2022,10,06,00,19,10.70
2022,10,06,00,20,10.70
2022,10,06,00,21,10.70
2022,10,06,00,22,10.70
2022,10,06,00,23,10.80
2022,10,06,00,24,10.80
2022,10,06,00,25,10.80
2022,10,06,00,26,10.80
2022,10,06,00,27,10.70
2022,10,06,00,28,10.70
2022,10,06,00,29,10.70
2022,10,06,00,30,10.70
2022,10,06,00,31,10.70
2022,10,06,00,32,10.70
2022,10,06,00,33,10.70
2022,10,06,00,34,10.70
2022,10,06,00,35,10.70
2022,10,06,00,36,10.70
2022,10,06,00,37,10.70
2022,10,06,00,38,10.70
2022,10,06,00,39,10.70
2022,10,06,00,40,10.70
2022,10,06,00,41,10.70
2022,10,06,00,42,10.70
2022,10,06,00,43,10.70
2022,10,06,00,44,10.70
2022,10,06,00,45,10.70
2022,10,06,00,46,10.70
2022,10,06,00,47,10.70
2022,10,06,00,48,10.70
2022,10,06,00,49,10.70
2022,10,06,00,50,10.70
2022,10,06,00,51,10.70
2022,10,06,00,52,10.70
2022,10,06,00,53,10.70
2022,10,06,00,54,10.70
2022,10,06,00,55,10.70
2022,10,06,00,56,10.70
2022,10,06,00,57,10.70
2022,10,06,00,58,10.70
2022,10,06,00,59,10.70
2022,10,06,01,00,10.70
2022,10,06,01,01,10.70
2022,10,06,01,02,10.70
2022,10,06,01,03,10.70
2022,10,06,01,04,10.60
2022,10,06,01,05,10.60
2022,10,06,01,06,10.60
2022,10,06,01,07,10.60
2022,10,06,01,08,10.60
2022,10,06,01,09,10.60
2022,10,06,01,10,10.60
2022,10,06,01,11,10.60
2022,10,06,01,12,10.60
2022,10,06,01,13,10.50
2022,10,06,01,14,10.50
2022,10,06,01,15,10.50
2022,10,06,01,16,10.50
2022,10,06,01,17,10.50
2022,10,06,01,18,10.50
2022,10,06,01,19,10.50
2022,10,06,01,20,10.40
2022,10,06,01,21,10.50
2022,10,06,01,22,10.40
2022,10,06,01,23,10.40
2022,10,06,01,24,10.40
2022,10,06,01,25,10.40
2022,10,06,01,26,10.40
2022,10,06,01,27,10.40
2022,10,06,01,28,10.40
2022,10,06,01,29,10.40
2022,10,06,01,30,10.40
2022,10,06,01,31,10.40
2022,10,06,01,32,10.40
2022,10,06,01,33,10.40
2022,10,06,01,34,10.40
2022,10,06,01,35,10.40
2022,10,06,01,36,10.40
2022,10,06,01,37,10.40
2022,10,06,01,38,10.40
2022,10,06,01,39,10.40
2022,10,06,01,40,10.40
2022,10,06,01,41,10.40
2022,10,06,01,42,10.40
2022,10,06,01,43,10.50
2022,10,06,01,44,10.50
2022,10,06,01,45,10.50
2022,10,06,01,46,10.50
2022,10,06,01,47,10.50
2022,10,06,01,48,10.50
2022,10,06,01,49,10.50
2022,10,06,01,50,10.50
2022,10,06,01,51,10.50
2022,10,06,01,52,10.50
2022,10,06,01,53,10.60
2022,10,06,01,54,10.60
2022,10,06,01,55,10.60
2022,10,06,01,56,10.60
2022,10,06,01,57,10.60
2022,10,06,01,58,10.60
2022,10,06,01,59,10.60
2022,10,06,02,00,10.60
2022,10,06,02,01,10.60
2022,10,06,02,02,10.60
2022,10,06,02,03,10.60
2022,10,06,02,04,10.50
2022,10,06,02,05,10.50
2022,10,06,02,06,10.50
2022,10,06,02,07,10.50
2022,10,06,02,08,10.50
2022,10,06,02,09,10.50
2022,10,06,02,10,10.50
2022,10,06,02,11,10.60
2022,10,06,02,12,10.60
2022,10,06,02,13,10.60
2022,10,06,02,14,10.60
2022,10,06,02,15,10.60
2022,10,06,02,16,10.60
2022,10,06,02,17,10.60
2022,10,06,02,18,10.50
2022,10,06,02,19,10.50
2022,10,06,02,20,10.50
2022,10,06,02,21,10.50
2022,10,06,02,22,10.50
2022,10,06,02,23,10.50
2022,10,06,02,24,10.50
2022,10,06,02,25,10.50
2022,10,06,02,26,10.40
2022,10,06,02,27,10.40
2022,10,06,02,28,10.40
2022,10,06,02,29,10.40
2022,10,06,02,30,10.30
2022,10,06,02,31,10.30
2022,10,06,02,32,10.30
2022,10,06,02,33,10.30
2022,10,06,02,34,10.30
2022,10,06,02,35,10.30
2022,10,06,02,36,10.30
2022,10,06,02,37,10.30
2022,10,06,02,38,10.30
2022,10,06,02,39,10.30
2022,10,06,02,40,10.30
2022,10,06,02,41,10.30
2022,10,06,02,42,10.30
2022,10,06,02,43,10.30
2022,10,06,02,44,10.30
2022,10,06,02,45,10.30
2022,10,06,02,46,10.30
2022,10,06,02,47,10.30
2022,10,06,02,48,10.30
2022,10,06,02,49,10.30
2022,10,06,02,50,10.30
2022,10,06,02,51,10.30
2022,10,06,02,52,10.30
2022,10,06,02,53,10.30
2022,10,06,02,54,10.30
2022,10,06,02,55,10.30
2022,10,06,02,56,10.30
2022,10,06,02,57,10.30
2022,10,06,02,58,10.30
2022,10,06,02,59,10.30
2022,10,06,03,00,10.30
2022,10,06,03,01,10.40
2022,10,06,03,02,10.40
2022,10,06,03,03,10.40
2022,10,06,03,04,10.40
2022,10,06,03,05,10.40
2022,10,06,03,06,10.50
2022,10,06,03,07,10.50
2022,10,06,03,08,10.50
2022,10,06,03,09,10.50
2022,10,06,03,10,10.50
2022,10,06,03,11,10.50
2022,10,06,03,12,10.50
2022,10,06,03,13,10.50
2022,10,06,03,14,10.50
2022,10,06,03,15,10.50
2022,10,06,03,16,10.50
2022,10,06,03,17,10.60
2022,10,06,03,18,10.60
2022,10,06,03,19,10.60
2022,10,06,03,20,10.60
2022,10,06,03,21,10.60
2022,10,06,03,22,10.60
2022,10,06,03,23,10.60
2022,10,06,03,24,10.50
2022,10,06,03,25,10.50
2022,10,06,03,26,10.50
2022,10,06,03,27,10.50
2022,10,06,03,28,10.50
2022,10,06,03,29,10.50
2022,10,06,03,30,10.50
2022,10,06,03,31,10.50
2022,10,06,03,32,10.50
2022,10,06,03,33,10.50
2022,10,06,03,34,10.50
2022,10,06,03,35,10.50
2022,10,06,03,36,10.50
2022,10,06,03,37,10.50
2022,10,06,03,38,10.50
2022,10,06,03,39,10.60
2022,10,06,03,40,10.60
2022,10,06,03,41,10.60
2022,10,06,03,42,10.60
2022,10,06,03,43,10.60
2022,10,06,03,44,10.60
2022,10,06,03,45,10.60
2022,10,06,03,46,10.70
2022,10,06,03,47,10.70
2022,10,06,03,48,10.70
2022,10,06,03,49,10.70
2022,10,06,03,50,10.80
2022,10,06,03,51,10.80
2022,10,06,03,52,10.80
2022,10,06,03,53,10.90
2022,10,06,03,54,10.90
2022,10,06,03,55,10.90
2022,10,06,03,56,11.00
2022,10,06,03,57,11.00
2022,10,06,03,58,11.10
2022,10,06,03,59,11.10
2022,10,06,04,00,11.20
2022,10,06,04,01,11.30
2022,10,06,04,02,11.40
2022,10,06,04,03,11.40
2022,10,06,04,04,11.50
2022,10,06,04,05,11.50
2022,10,06,04,06,11.50
2022,10,06,04,07,11.50
2022,10,06,04,08,11.50
2022,10,06,04,09,11.50
2022,10,06,04,10,11.50
2022,10,06,04,11,11.50
2022,10,06,04,12,11.50
2022,10,06,04,13,11.50
2022,10,06,04,14,11.50
2022,10,06,04,15,11.50
2022,10,06,04,16,11.60
2022,10,06,04,17,11.60
2022,10,06,04,18,11.60
2022,10,06,04,19,11.60
2022,10,06,04,20,11.60
2022,10,06,04,21,11.60
2022,10,06,04,22,11.60
2022,10,06,04,23,11.60
2022,10,06,04,24,11.60
2022,10,06,04,25,11.60
2022,10,06,04,26,11.60
2022,10,06,04,27,11.60
2022,10,06,04,28,11.60
2022,10,06,04,29,11.60
2022,10,06,04,30,11.60
2022,10,06,04,31,11.60
2022,10,06,04,32,11.60
2022,10,06,04,33,11.60
2022,10,06,04,34,11.70
2022,10,06,04,35,11.70
2022,10,06,04,36,11.70
2022,10,06,04,37,11.70
2022,10,06,04,38,11.70
2022,10,06,04,39,11.70
2022,10,06,04,40,11.70
2022,10,06,04,41,11.70
2022,10,06,04,42,11.70
2022,10,06,04,43,11.70
2022,10,06,04,44,11.70
2022,10,06,04,45,11.70
2022,10,06,04,46,11.70
2022,10,06,04,47,11.70
2022,10,06,04,48,11.70
2022,10,06,04,49,11.80
2022,10,06,04,50,11.80
2022,10,06,04,51,11.80
2022,10,06,04,52,11.80
2022,10,06,04,53,11.70
2022,10,06,04,54,11.70
2022,10,06,04,55,11.80
2022,10,06,04,56,11.80
2022,10,06,04,57,11.80
2022,10,06,04,58,11.80
2022,10,06,04,59,11.80
2022,10,06,05,00,11.80
2022,10,06,05,01,11.80
2022,10,06,05,02,11.80
2022,10,06,05,03,11.70
2022,10,06,05,04,11.70
2022,10,06,05,05,11.70
2022,10,06,05,06,11.70
2022,10,06,05,07,11.70
2022,10,06,05,08,11.70
2022,10,06,05,09,11.70
2022,10,06,05,10,11.80
2022,10,06,05,11,11.80
2022,10,06,05,12,11.80
2022,10,06,05,13,11.80
2022,10,06,05,14,11.80
2022,10,06,05,15,11.80
2022,10,06,05,16,11.80
2022,10,06,05,17,11.80
2022,10,06,05,18,11.80
2022,10,06,05,19,11.80
2022,10,06,05,20,11.80
2022,10,06,05,21,11.80
2022,10,06,05,22,11.80
2022,10,06,05,23,11.90
2022,10,06,05,24,11.90
2022,10,06,05,25,11.90
2022,10,06,05,26,11.90
2022,10,06,05,27,11.90
2022,10,06,05,28,11.80
2022,10,06,05,29,11.80
2022,10,06,05,30,11.80
2022,10,06,05,31,11.80
2022,10,06,05,32,11.80
2022,10,06,05,33,11.80
2022,10,06,05,34,11.80
2022,10,06,05,35,11.80
2022,10,06,05,36,11.80
2022,10,06,05,37,11.80
2022,10,06,05,38,11.70
2022,10,06,05,39,11.70
2022,10,06,05,40,11.70
2022,10,06,05,41,11.70
2022,10,06,05,42,11.70
2022,10,06,05,43,11.70
2022,10,06,05,44,11.70
2022,10,06,05,45,11.70
2022,10,06,05,46,11.70
2022,10,06,05,47,11.60
2022,10,06,05,48,11.60
2022,10,06,05,49,11.60
2022,10,06,05,50,11.60
2022,10,06,05,51,11.60
2022,10,06,05,52,11.60
2022,10,06,05,53,11.60
2022,10,06,05,54,11.60
2022,10,06,05,55,11.60
2022,10,06,05,56,11.60
2022,10,06,05,57,11.60
2022,10,06,05,58,11.60
2022,10,06,05,59,11.60
2022,10,06,06,00,11.60
2022,10,06,06,01,11.60
2022,10,06,06,02,11.60
2022,10,06,06,03,11.60
2022,10,06,06,04,11.60
2022,10,06,06,05,11.60
2022,10,06,06,06,11.60
2022,10,06,06,07,11.60
2022,10,06,06,08,11.60
2022,10,06,06,09,11.60
2022,10,06,06,10,11.60
2022,10,06,06,11,11.70
2022,10,06,06,12,11.70
2022,10,06,06,13,11.70
2022,10,06,06,14,11.70
2022,10,06,06,15,11.70
2022,10,06,06,16,11.70
2022,10,06,06,17,11.70
2022,10,06,06,18,11.70
2022,10,06,06,19,11.70
2022,10,06,06,20,11.70
2022,10,06,06,21,11.70
2022,10,06,06,22,11.70
2022,10,06,06,23,11.70
2022,10,06,06,24,11.70
2022,10,06,06,25,11.70
2022,10,06,06,26,11.70
2022,10,06,06,27,11.60
2022,10,06,06,28,11.60
2022,10,06,06,29,11.60
2022,10,06,06,30,11.60
2022,10,06,06,31,11.60
2022,10,06,06,32,11.60
2022,10,06,06,33,11.60
2022,10,06,06,34,11.60
2022,10,06,06,35,11.60
2022,10,06,06,36,11.60
2022,10,06,06,37,11.60
2022,10,06,06,38,11.60
2022,10,06,06,39,11.60
2022,10,06,06,40,11.60
2022,10,06,06,41,11.60
2022,10,06,06,42,11.60
2022,10,06,06,43,11.60
2022,10,06,06,44,11.60
2022,10,06,06,45,11.60
2022,10,06,06,46,11.50
2022,10,06,06,47,11.60
2022,10,06,06,48,11.60
2022,10,06,06,49,11.60
2022,10,06,06,50,11.60
2022,10,06,06,51,11.60
2022,10,06,06,52,11.60
2022,10,06,06,53,11.60
2022,10,06,06,54,11.70
2022,10,06,06,55,11.70
2022,10,06,06,56,11.60
2022,10,06,06,57,11.70
2022,10,06,06,58,11.60
2022,10,06,06,59,11.70
2022,10,06,07,00,11.60
2022,10,06,07,01,11.60
2022,10,06,07,02,11.60
2022,10,06,07,03,11.60
2022,10,06,07,04,11.60
2022,10,06,07,05,11.60
2022,10,06,07,06,11.60
2022,10,06,07,07,11.60
2022,10,06,07,08,11.60
2022,10,06,07,09,11.60
2022,10,06,07,10,11.60
2022,10,06,07,11,11.60
2022,10,06,07,12,11.60
2022,10,06,07,13,11.60
2022,10,06,07,14,11.60
2022,10,06,07,15,11.60
2022,10,06,07,16,11.60
2022,10,06,07,17,11.60
2022,10,06,07,18,11.60
2022,10,06,07,19,11.60
2022,10,06,07,20,11.60
2022,10,06,07,21,11.60
2022,10,06,07,22,11.60
2022,10,06,07,23,11.60
2022,10,06,07,24,11.60
2022,10,06,07,25,11.60
2022,10,06,07,26,11.60
2022,10,06,07,27,11.60
2022,10,06,07,28,11.60
2022,10,06,07,29,11.60
2022,10,06,07,30,11.60
2022,10,06,07,31,11.60
2022,10,06,07,32,11.60
2022,10,06,07,33,11.60
2022,10,06,07,34,11.60
2022,10,06,07,35,11.60
2022,10,06,07,36,11.60
2022,10,06,07,37,11.60
2022,10,06,07,38,11.60
2022,10,06,07,39,11.60
2022,10,06,07,40,11.60
2022,10,06,07,41,11.60
2022,10,06,07,42,11.60
2022,10,06,07,43,11.60
2022,10,06,07,44,11.60
2022,10,06,07,45,11.60
2022,10,06,07,46,11.60
2022,10,06,07,47,11.60
2022,10,06,07,48,11.70
2022,10,06,07,49,11.70
2022,10,06,07,50,11.70
2022,10,06,07,51,11.70
2022,10,06,07,52,11.70
2022,10,06,07,53,11.70
2022,10,06,07,54,11.70
2022,10,06,07,55,11.70
2022,10,06,07,56,11.70
2022,10,06,07,57,11.70
2022,10,06,07,58,11.80
2022,10,06,07,59,11.80
2022,10,06,08,00,11.80
2022,10,06,08,01,11.80
2022,10,06,08,02,11.80
2022,10,06,08,03,11.80
2022,10,06,08,04,11.90
2022,10,06,08,05,11.90
2022,10,06,08,06,11.90
2022,10,06,08,07,12.00
2022,10,06,08,08,12.00
2022,10,06,08,09,12.10
2022,10,06,08,10,12.10
2022,10,06,08,11,12.10
2022,10,06,08,12,12.20
2022,10,06,08,13,12.20
2022,10,06,08,14,12.20
2022,10,06,08,15,12.20
2022,10,06,08,16,12.20
2022,10,06,08,17,12.20
2022,10,06,08,18,12.30
2022,10,06,08,19,12.30
2022,10,06,08,20,12.30
2022,10,06,08,21,12.40
2022,10,06,08,22,12.40
2022,10,06,08,23,12.40
2022,10,06,08,24,12.50
2022,10,06,08,25,12.50
2022,10,06,08,26,12.50
2022,10,06,08,27,12.60
2022,10,06,08,28,12.70
2022,10,06,08,29,12.70
2022,10,06,08,30,12.70
2022,10,06,08,31,12.70
2022,10,06,08,32,12.80
2022,10,06,08,33,12.80
2022,10,06,08,34,12.80
2022,10,06,08,35,12.90
2022,10,06,08,36,12.90
2022,10,06,08,37,13.00
2022,10,06,08,38,13.00
2022,10,06,08,39,13.10
2022,10,06,08,40,13.10
2022,10,06,08,41,13.20
2022,10,06,08,42,13.20
2022,10,06,08,43,13.30
2022,10,06,08,44,13.40
2022,10,06,08,45,13.50
2022,10,06,08,46,13.50
2022,10,06,08,47,13.60
2022,10,06,08,48,13.60
2022,10,06,08,49,13.70
2022,10,06,08,50,13.70
2022,10,06,08,51,13.80
2022,10,06,08,52,13.80
2022,10,06,08,53,13.90
2022,10,06,08,54,13.90
2022,10,06,08,55,14.00
2022,10,06,08,56,14.00
2022,10,06,08,57,14.10
2022,10,06,08,58,14.10
2022,10,06,08,59,14.20
2022,10,06,09,00,14.20
2022,10,06,09,01,14.20
2022,10,06,09,02,14.30
2022,10,06,09,03,14.30
2022,10,06,09,04,14.30
2022,10,06,09,05,14.30
2022,10,06,09,06,14.40
2022,10,06,09,07,14.40
2022,10,06,09,08,14.40
2022,10,06,09,09,14.40
2022,10,06,09,10,14.50
2022,10,06,09,11,14.50
2022,10,06,09,12,14.50
2022,10,06,09,13,14.60
2022,10,06,09,14,14.60
2022,10,06,09,15,14.60
2022,10,06,09,16,14.70
2022,10,06,09,17,14.70
2022,10,06,09,18,14.70
2022,10,06,09,19,14.70
2022,10,06,09,20,14.70
2022,10,06,09,21,14.80
2022,10,06,09,22,14.80
2022,10,06,09,23,14.90
2022,10,06,09,24,14.90
2022,10,06,09,25,15.00
2022,10,06,09,26,15.10
2022,10,06,09,27,15.10
2022,10,06,09,28,15.20
2022,10,06,09,29,15.20
2022,10,06,09,30,15.30
2022,10,06,09,31,15.30
2022,10,06,09,32,15.30
2022,10,06,09,33,15.30
2022,10,06,09,34,15.40
2022,10,06,09,35,15.40
2022,10,06,09,36,15.50
2022,10,06,09,37,15.50
2022,10,06,09,38,15.50
2022,10,06,09,39,15.60
2022,10,06,09,40,15.60
2022,10,06,09,41,15.60
2022,10,06,09,42,15.60
2022,10,06,09,43,15.60
2022,10,06,09,44,15.60
2022,10,06,09,45,15.70
2022,10,06,09,46,15.70
2022,10,06,09,47,15.80
2022,10,06,09,48,15.80
2022,10,06,09,49,15.90
2022,10,06,09,50,16.00
2022,10,06,09,51,16.00
2022,10,06,09,52,16.10
2022,10,06,09,53,16.10
2022,10,06,09,54,16.20
2022,10,06,09,55,16.20
2022,10,06,09,56,16.20
2022,10,06,09,57,16.30
2022,10,06,09,58,16.30
2022,10,06,09,59,16.30
2022,10,06,10,00,16.40
2022,10,06,10,01,16.40
2022,10,06,10,02,16.50
2022,10,06,10,03,16.60
2022,10,06,10,04,16.60
2022,10,06,10,05,16.60
2022,10,06,10,06,16.60
2022,10,06,10,07,16.70
2022,10,06,10,08,16.70
2022,10,06,10,09,16.80
2022,10,06,10,10,16.90
2022,10,06,10,11,16.90
2022,10,06,10,12,17.00
2022,10,06,10,13,17.10
2022,10,06,10,14,17.10
2022,10,06,10,15,17.20
2022,10,06,10,16,17.30
2022,10,06,10,17,17.30
2022,10,06,10,18,17.40
2022,10,06,10,19,17.50
2022,10,06,10,20,17.50
2022,10,06,10,21,17.60
2022,10,06,10,22,17.70
2022,10,06,10,23,17.70
2022,10,06,10,24,17.80
2022,10,06,10,25,17.80
2022,10,06,10,26,17.90
2022,10,06,10,27,17.90
2022,10,06,10,28,18.00
2022,10,06,10,29,18.10
2022,10,06,10,30,18.10
2022,10,06,10,31,18.20
2022,10,06,10,32,18.30
2022,10,06,10,33,18.30
2022,10,06,10,34,18.30
2022,10,06,10,35,18.30
2022,10,06,10,36,18.40
2022,10,06,10,37,18.40
2022,10,06,10,38,18.40
2022,10,06,10,39,18.40
2022,10,06,10,40,18.40
2022,10,06,10,41,18.40
2022,10,06,10,42,18.40
2022,10,06,10,43,18.50
2022,10,06,10,44,18.50
2022,10,06,10,45,18.50
2022,10,06,10,46,18.50
2022,10,06,10,47,18.60
2022,10,06,10,48,18.60
2022,10,06,10,49,18.60
2022,10,06,10,50,18.60
2022,10,06,10,51,18.60
2022,10,06,10,52,18.60
2022,10,06,10,53,18.60
2022,10,06,10,54,18.60
2022,10,06,10,55,18.60
2022,10,06,10,56,18.50
2022,10,06,10,57,18.50
2022,10,06,10,58,18.50
2022,10,06,10,59,18.50
2022,10,06,11,00,18.50
2022,10,06,11,01,18.50
2022,10,06,11,02,18.40
2022,10,06,11,03,18.40
2022,10,06,11,04,18.50
2022,10,06,11,05,18.50
2022,10,06,11,06,18.50
2022,10,06,11,07,18.50
2022,10,06,11,08,18.60
2022,10,06,11,09,18.60
2022,10,06,11,10,18.60
2022,10,06,11,11,18.60
2022,10,06,11,12,18.60
2022,10,06,11,13,18.60
2022,10,06,11,14,18.70
2022,10,06,11,15,18.70
2022,10,06,11,16,18.80
2022,10,06,11,17,18.80
2022,10,06,11,18,18.80
2022,10,06,11,19,18.90
2022,10,06,11,20,18.90
2022,10,06,11,21,18.90
2022,10,06,11,22,18.90
2022,10,06,11,23,18.90
2022,10,06,11,24,18.90
2022,10,06,11,25,18.90
2022,10,06,11,26,19.00
2022,10,06,11,27,19.00
2022,10,06,11,28,19.00
2022,10,06,11,29,19.00
2022,10,06,11,30,19.10
2022,10,06,11,31,19.10
2022,10,06,11,32,19.10
2022,10,06,11,33,19.10
2022,10,06,11,34,19.10
2022,10,06,11,35,19.10
2022,10,06,11,36,19.10
2022,10,06,11,37,19.20
2022,10,06,11,38,19.20
2022,10,06,11,39,19.20
2022,10,06,11,40,19.20
2022,10,06,11,41,19.20
2022,10,06,11,42,19.30
2022,10,06,11,43,19.30
2022,10,06,11,44,19.30
2022,10,06,11,45,19.30
2022,10,06,11,46,19.40
2022,10,06,11,47,19.40
2022,10,06,11,48,19.40
2022,10,06,11,49,19.50
2022,10,06,11,50,19.50
2022,10,06,11,51,19.50
2022,10,06,11,52,19.50
2022,10,06,11,53,19.50
2022,10,06,11,54,19.40
2022,10,06,11,55,19.40
2022,10,06,11,56,19.30
2022,10,06,11,57,19.30
2022,10,06,11,58,19.30
2022,10,06,11,59,19.30
2022,10,06,12,00,19.30
2022,10,06,12,01,19.40
2022,10,06,12,02,19.40
2022,10,06,12,03,19.50
2022,10,06,12,04,19.50
2022,10,06,12,05,19.60
2022,10,06,12,06,19.60
2022,10,06,12,07,19.70
2022,10,06,12,08,19.70
2022,10,06,12,09,19.80
2022,10,06,12,10,19.80
2022,10,06,12,11,19.80
2022,10,06,12,12,19.90
2022,10,06,12,13,20.00
2022,10,06,12,14,20.00
2022,10,06,12,15,20.10
2022,10,06,12,16,20.10
2022,10,06,12,17,20.20
2022,10,06,12,18,20.20
2022,10,06,12,19,20.30
2022,10,06,12,20,20.30
2022,10,06,12,21,20.40
2022,10,06,12,22,20.40
2022,10,06,12,23,20.40
2022,10,06,12,24,20.40
2022,10,06,12,25,20.50
2022,10,06,12,26,20.50
2022,10,06,12,27,20.40
2022,10,06,12,28,20.40
2022,10,06,12,29,20.40
2022,10,06,12,30,20.30
2022,10,06,12,31,20.30
2022,10,06,12,32,20.30
2022,10,06,12,33,20.30
2022,10,06,12,34,20.30
2022,10,06,12,35,20.30
2022,10,06,12,36,20.30
2022,10,06,12,37,20.30
2022,10,06,12,38,20.30
2022,10,06,12,39,20.30
2022,10,06,12,40,20.30
2022,10,06,12,41,20.30
2022,10,06,12,42,20.40
2022,10,06,12,43,20.40
2022,10,06,12,44,20.40
2022,10,06,12,45,20.40
2022,10,06,12,46,20.40
2022,10,06,12,47,20.40
2022,10,06,12,48,20.40
2022,10,06,12,49,20.30
2022,10,06,12,50,20.30
2022,10,06,12,51,20.30
2022,10,06,12,52,20.30
2022,10,06,12,53,20.30
2022,10,06,12,54,20.30
2022,10,06,12,55,20.30
2022,10,06,12,56,20.30
2022,10,06,12,57,20.20
2022,10,06,12,58,20.10
2022,10,06,12,59,20.10
2022,10,06,13,00,20.00
2022,10,06,13,01,20.00
2022,10,06,13,02,20.00
2022,10,06,13,03,19.90
2022,10,06,13,04,19.80
2022,10,06,13,05,19.80
2022,10,06,13,06,19.80
2022,10,06,13,07,19.70
2022,10,06,13,08,19.70
2022,10,06,13,09,19.60
2022,10,06,13,10,19.60
2022,10,06,13,11,19.60
2022,10,06,13,12,19.60
2022,10,06,13,13,19.60
2022,10,06,13,14,19.60
2022,10,06,13,15,19.60
2022,10,06,13,16,19.70
2022,10,06,13,17,19.80
2022,10,06,13,18,19.80
2022,10,06,13,19,19.90
2022,10,06,13,20,20.00
2022,10,06,13,21,20.10
2022,10,06,13,22,20.20
2022,10,06,13,23,20.30
2022,10,06,13,24,20.40
2022,10,06,13,25,20.40
2022,10,06,13,26,20.40
2022,10,06,13,27,20.40
2022,10,06,13,28,20.40
2022,10,06,13,29,20.50
2022,10,06,13,30,20.50
2022,10,06,13,31,20.50
2022,10,06,13,32,20.50
2022,10,06,13,33,20.50
2022,10,06,13,34,20.60
2022,10,06,13,35,20.60
2022,10,06,13,36,20.60
2022,10,06,13,37,20.70
2022,10,06,13,38,20.70
2022,10,06,13,39,20.70
2022,10,06,13,40,20.80
2022,10,06,13,41,20.80
2022,10,06,13,42,20.80
2022,10,06,13,43,20.80
2022,10,06,13,44,20.70
2022,10,06,13,45,20.70
2022,10,06,13,46,20.70
2022,10,06,13,47,20.70
2022,10,06,13,48,20.70
2022,10,06,13,49,20.70
2022,10,06,13,50,20.70
2022,10,06,13,51,20.70
2022,10,06,13,52,20.70
2022,10,06,13,53,20.80
2022,10,06,13,54,20.80
2022,10,06,13,55,20.80
2022,10,06,13,56,20.80
2022,10,06,13,57,20.70
2022,10,06,13,58,20.70
2022,10,06,13,59,20.70
2022,10,06,14,00,20.80
2022,10,06,14,01,20.80
2022,10,06,14,02,20.80
2022,10,06,14,03,20.90
2022,10,06,14,04,20.90
2022,10,06,14,05,21.00
2022,10,06,14,06,21.00
2022,10,06,14,07,21.10
2022,10,06,14,08,21.10
2022,10,06,14,09,21.20
2022,10,06,14,10,21.20
2022,10,06,14,11,21.30
2022,10,06,14,12,21.30
2022,10,06,14,13,21.30
2022,10,06,14,14,21.30
2022,10,06,14,15,21.30
2022,10,06,14,16,21.40
2022,10,06,14,17,21.40
2022,10,06,14,18,21.40
2022,10,06,14,19,21.40
2022,10,06,14,20,21.50
2022,10,06,14,21,21.50
2022,10,06,14,22,21.50
2022,10,06,14,23,21.50
2022,10,06,14,24,21.60
2022,10,06,14,25,21.60
2022,10,06,14,26,21.60
2022,10,06,14,27,21.60
2022,10,06,14,28,21.60
2022,10,06,14,29,21.60
2022,10,06,14,30,21.60
2022,10,06,14,31,21.60
2022,10,06,14,32,21.60
2022,10,06,14,33,21.60
2022,10,06,14,34,21.50
2022,10,06,14,35,21.40
2022,10,06,14,36,21.40
2022,10,06,14,37,21.30
2022,10,06,14,38,21.30
2022,10,06,14,39,21.30
2022,10,06,14,40,21.30
2022,10,06,14,41,21.30
2022,10,06,14,42,21.20
2022,10,06,14,43,21.20
2022,10,06,14,44,21.20
2022,10,06,14,45,21.20
2022,10,06,14,46,21.20
2022,10,06,14,47,21.30
2022,10,06,14,48,21.30
2022,10,06,14,49,21.30
2022,10,06,14,50,21.30
2022,10,06,14,51,21.30
2022,10,06,14,52,21.30
2022,10,06,14,53,21.30
2022,10,06,14,54,21.30
2022,10,06,14,55,21.30
2022,10,06,14,56,21.30
2022,10,06,14,57,21.30
2022,10,06,14,58,21.30
2022,10,06,14,59,21.20
2022,10,06,15,00,21.20
2022,10,06,15,01,21.20
2022,10,06,15,02,21.20
2022,10,06,15,03,21.20
2022,10,06,15,04,21.20
2022,10,06,15,05,21.20
2022,10,06,15,06,21.20
2022,10,06,15,07,21.10
2022,10,06,15,08,21.10
2022,10,06,15,09,21.10
2022,10,06,15,10,21.00
2022,10,06,15,11,21.00
2022,10,06,15,12,20.90
2022,10,06,15,13,20.90
2022,10,06,15,14,20.80
2022,10,06,15,15,20.80
2022,10,06,15,16,20.80
2022,10,06,15,17,20.80
2022,10,06,15,18,20.70
2022,10,06,15,19,20.70
2022,10,06,15,20,20.70
2022,10,06,15,21,20.60
2022,10,06,15,22,20.60
2022,10,06,15,23,20.60
2022,10,06,15,24,20.50
2022,10,06,15,25,20.50
2022,10,06,15,26,20.40
2022,10,06,15,27,20.40
2022,10,06,15,28,20.40
2022,10,06,15,29,20.40
2022,10,06,15,30,20.40
2022,10,06,15,31,20.40
2022,10,06,15,32,20.30
2022,10,06,15,33,20.30
2022,10,06,15,34,20.30
2022,10,06,15,35,20.30
2022,10,06,15,36,20.30
2022,10,06,15,37,20.30
2022,10,06,15,38,20.30
2022,10,06,15,39,20.30
2022,10,06,15,40,20.30
2022,10,06,15,41,20.30
2022,10,06,15,42,20.30
2022,10,06,15,43,20.30
2022,10,06,15,44,20.30
2022,10,06,15,45,20.30
2022,10,06,15,46,20.30
2022,10,06,15,47,20.20
2022,10,06,15,48,20.20
2022,10,06,15,49,20.20
2022,10,06,15,50,20.20
2022,10,06,15,51,20.20
2022,10,06,15,52,20.10
2022,10,06,15,53,20.10
2022,10,06,15,54,20.10
2022,10,06,15,55,20.00
2022,10,06,15,56,20.00
2022,10,06,15,57,19.90
2022,10,06,15,58,19.90
2022,10,06,15,59,19.90
2022,10,06,16,00,19.90
2022,10,06,16,01,19.80
2022,10,06,16,02,19.80
2022,10,06,16,03,19.80
2022,10,06,16,04,19.80
2022,10,06,16,05,19.80
2022,10,06,16,06,19.70
2022,10,06,16,07,19.70
2022,10,06,16,08,19.70
2022,10,06,16,09,19.70
2022,10,06,16,10,19.60
2022,10,06,16,11,19.60
2022,10,06,16,12,19.60
2022,10,06,16,13,19.60
2022,10,06,16,14,19.60
2022,10,06,16,15,19.50
2022,10,06,16,16,19.50
2022,10,06,16,17,19.50
2022,10,06,16,18,19.50
2022,10,06,16,19,19.50
2022,10,06,16,20,19.50
2022,10,06,16,21,19.50
2022,10,06,16,22,19.50
2022,10,06,16,23,19.50
2022,10,06,16,24,19.50
2022,10,06,16,25,19.50
2022,10,06,16,26,19.50
2022,10,06,16,27,19.50
2022,10,06,16,28,19.50
2022,10,06,16,29,19.40
2022,10,06,16,30,19.40
2022,10,06,16,31,19.40
2022,10,06,16,32,19.40
2022,10,06,16,33,19.40
2022,10,06,16,34,19.40
2022,10,06,16,35,19.40
2022,10,06,16,36,19.40
2022,10,06,16,37,19.40
2022,10,06,16,38,19.40
2022,10,06,16,39,19.40
2022,10,06,16,40,19.40
2022,10,06,16,41,19.30
2022,10,06,16,42,19.30
2022,10,06,16,43,19.30
2022,10,06,16,44,19.30
2022,10,06,16,45,19.30
2022,10,06,16,46,19.30
2022,10,06,16,47,19.30
2022,10,06,16,48,19.20
2022,10,06,16,49,19.20
2022,10,06,16,50,19.20
2022,10,06,16,51,19.20
2022,10,06,16,52,19.20
2022,10,06,16,53,19.20
2022,10,06,16,54,19.10
2022,10,06,16,55,19.10
2022,10,06,16,56,19.00
2022,10,06,16,57,19.00
2022,10,06,16,58,19.00
2022,10,06,16,59,18.90
2022,10,06,17,00,18.90
2022,10,06,17,01,18.90
2022,10,06,17,02,18.90
2022,10,06,17,03,18.80
2022,10,06,17,04,18.80
2022,10,06,17,05,18.80
2022,10,06,17,06,18.80
2022,10,06,17,07,18.80
2022,10,06,17,08,18.70
2022,10,06,17,09,18.70
2022,10,06,17,10,18.70
2022,10,06,17,11,18.60
2022,10,06,17,12,18.60
2022,10,06,17,13,18.50
2022,10,06,17,14,18.50
2022,10,06,17,15,18.50
2022,10,06,17,16,18.40
2022,10,06,17,17,18.40
2022,10,06,17,18,18.40
2022,10,06,17,19,18.30